RH
82 79 75 79 80 76 70 63 59 56 47 40 34 28 31 35 29 25 37 19 21 20 24 25 26 26 24 25 25 28 36 38 26 20 25 18 15 16 15 15 22 28 33 32 37
82 80 72 78 82 83 79 67 63 60 50 42 34 28 34 34 32 40 19 18 24 24 24 26 26 25 24 23 27 32 34 27 18 14 16 18 16 17 16 17 21 24 36 40 41
81 81 71 80 90 88 84 72 67 64 55 44 35 28 36 34 49 30 20 19 24 22 21 26 26 24 22 23 24 28 30 26 19 20 18 18 17 18 17 18 19 22 30 34 35
82 76 70 81 93 90 86 73 70 67 60 45 37 28 37 36 35 23 22 18 23 22 21 24 19 20 21 22 20 24 22 21 17 21 19 18 18 19 19 17 17 21 22 23 27
81 72 72 84 92 86 77 74 71 67 61 46 37 35 37 47 42 22 23 20 23 22 21 24 21 22 23 21 20 21 19 19 16 20 21 19 20 20 20 19 25 28 29 30 31
78 80 76 74 78 78 78 78 75 68 61 46 35 44 49 41 22 30 24 25 21 21 24 24 20 20 22 21 21 19 19 20 20 19 21 20 19 19 19 22 30 32 35 34 32
83 84 83 75 76 85 87 82 75 72 62 48 36 49 62 41 24 31 28 24 20 19 22 19 17 19 22 23 21 19 23 23 21 20 20 21 22 24 21 24 31 35 39 38 35
91 84 84 81 82 86 90 85 76 72 62 46 43 54 60 23 23 24 25 25 28 22 20 17 17 20 20 21 27 24 24 27 19 21 21 19 27 20 21 28 34 38 41 40 39
98 88 83 83 88 91 92 87 80 70 57 42 50 54 52 27 26 21 22 27 26 20 18 17 18 24 25 32 38 36 30 25 23 22 25 21 24 18 26 27 34 43 46 44 42
100 96 86 85 90 97 96 91 79 60 45 54 57 51 37 32 22 22 22 26 20 20 20 21 33 33 35 38 42 29 28 24 24 20 24 26 28 24 22 26 31 44 49 51 48
98 98 90 88 92 94 99 81 53 52 66 44 41 38 25 26 21 22 24 20 22 24 31 27 36 39 33 33 31 29 31 33 25 19 22 27 30 26 23 26 32 46 51 56 56
95 100 93 92 94 93 98 68 37 27 39 50 54 45 34 26 26 22 24 27 28 34 32 38 42 29 29 33 35 35 29 29 25 22 25 26 27 25 24 25 29 36 51 56 57
97 100 95 96 94 96 98 68 43 40 38 31 31 46 36 28 29 28 26 29 31 36 38 43 34 31 33 34 35 32 30 28 26 23 23 26 31 28 25 26 29 33 41 53 60
92 100 96 100 98 98 95 71 45 38 37 35 41 35 29 30 34 24 24 26 30 38 39 37 31 32 36 36 31 31 23 23 25 28 34 27 41 31 26 31 33 42 51 52 60
89 100 100 95 82 95 78 70 54 38 95 41 44 26 31 29 30 32 23 26 35 34 38 40 36 38 39 31 23 29 26 25 24 29 34 35 37 29 32 31 34 44 53 55 59
92 97 100 96 78 81 69 62 50 80 94 38 42 37 39 34 33 28 27 23 28 33 32 35 26 34 36 27 25 25 28 37 46 44 48 36 36 31 27 29 30 38 47 49 53
90 95 100 97 87 78 63 47 60 98 39 42 47 39 39 43 38 33 36 37 42 46 46 34 30 22 22 27 26 28 32 44 49 55 49 38 41 30 22 27 29 32 40 48 51
91 95 98 94 68 72 48 48 63 52 45 37 43 43 44 42 41 37 41 43 38 38 51 53 52 30 25 26 30 33 32 44 42 60 50 38 45 30 23 23 28 29 39 47 51
86 95 100 94 62 69 43 60 45 52 38 42 44 45 42 42 42 38 45 39 36 36 42 51 47 28 27 26 24 32 37 30 39 38 43 37 31 21 22 23 32 40 46 47 47
98 99 96 99 71 46 44 51 40 42 37 40 50 49 56 51 47 44 48 39 37 34 26 35 41 31 28 25 27 30 28 38 45 43 47 38 34 30 19 23 30 39 44 44 46
98 97 98 92 79 59 62 50 43 38 34 36 45 52 50 52 48 52 49 37 33 38 29 31 33 36 30 35 37 36 38 37 40 44 40 40 31 24 22 22 27 34 40 42 44
94 99 99 87 98 76 57 47 42 36 35 35 38 40 48 49 49 50 48 41 35 37 40 33 38 49 38 29 29 33 36 37 46 39 46 42 35 20 22 25 26 26 32 38 42
100 97 98 81 98 85 53 46 43 40 39 39 38 35 38 46 46 46 46 35 34 39 38 33 43 48 38 35 31 35 34 32 34 35 44 40 34 24 24 22 25 26 29 34 43
100 100 97 94 73 62 55 47 44 41 39 37 37 35 39 40 36 47 45 34 36 40 46 34 41 39 42 34 34 39 36 33 33 46 35 44 30 24 22 21 23 27 30 30 43
99 99 87 96 92 61 48 43 42 53 42 37 38 37 38 46 42 44 44 40 36 42 39 34 43 37 33 29 32 34 35 39 37 30 39 28 34 24 25 25 24 24 26 31 41
99 97 81 76 74 69 54 46 39 53 49 46 44 41 35 44 39 47 46 40 38 40 39 41 39 36 36 34 36 32 33 40 35 32 34 30 36 25 25 24 26 28 29 36 43
92 89 62 71 78 73 57 44 38 46 44 37 39 42 38 36 32 30 36 38 34 41 42 47 47 46 43 35 35 45 37 34 33 32 31 40 27 25 25 30 31 33 34 38 44
Wind_Speed
19 18 17 15 14 13 12 11 11 12 10 10 12 12 12 14 16 12 6 6 2 5 5 3 1 1 0 2 3 4 4 1 2 1 2 3 1 3 2 3 3 3 3 3 16
22 20 19 17 15 14 14 13 12 13 11 10 10 11 12 14 17 10 13 8 7 8 7 5 2 2 3 2 3 5 3 6 3 2 2 0 2 2 2 1 2 2 4 10 15
24 22 21 20 17 16 15 14 13 12 11 11 9 10 11 12 5 7 5 13 8 8 4 3 1 2 3 2 1 3 4 4 3 3 2 1 2 2 3 4 5 6 6 6 7
26 25 22 20 19 18 16 14 13 12 11 9 10 9 10 5 5 1 6 15 11 10 5 2 3 3 2 2 2 2 4 4 2 3 3 3 1 3 5 5 3 6 5 4 6
28 25 24 21 21 19 17 15 13 11 10 8 9 8 4 2 8 7 5 14 12 10 7 4 3 3 4 3 3 3 2 4 2 3 4 1 5 5 6 4 6 7 6 6 5
28 25 24 24 22 19 17 14 12 11 9 7 7 7 2 3 5 6 3 10 10 10 6 5 5 5 4 3 3 3 2 4 5 5 4 5 4 2 4 6 6 7 5 4 4
29 27 24 23 21 19 17 14 12 10 8 7 5 4 3 11 5 2 4 6 8 8 4 6 5 4 4 2 1 1 4 7 4 3 7 6 6 8 3 5 8 7 5 5 2
32 29 26 23 21 19 16 14 11 9 7 5 4 2 6 8 13 20 14 12 7 9 5 4 5 4 3 4 6 3 4 3 3 3 1 4 8 7 4 9 8 7 5 3 0
34 34 29 25 21 19 16 12 10 8 6 4 2 2 8 7 8 20 14 7 7 6 5 5 2 2 4 4 4 5 2 2 7 5 3 3 6 4 4 7 8 7 6 4 1
32 37 33 27 21 17 14 9 6 5 5 3 2 1 7 5 4 10 12 12 3 5 3 3 5 3 2 3 3 3 2 3 5 3 3 4 10 9 3 6 9 7 7 5 4
24 39 37 30 23 20 16 7 3 1 7 8 7 6 4 9 2 5 14 9 4 5 6 2 3 6 9 7 4 3 3 4 5 6 3 7 8 11 7 5 8 9 8 7 7
19 37 40 33 26 23 23 5 7 3 4 17 3 7 12 2 2 2 11 6 5 6 5 4 6 11 5 3 5 5 4 5 6 4 6 7 12 10 7 9 11 14 10 10 5
26 22 41 35 27 27 29 23 5 5 1 4 14 6 5 8 6 6 10 6 5 6 7 7 5 7 7 5 4 4 5 4 8 4 3 5 8 6 5 5 5 9 8 6 10
25 31 44 37 26 29 26 36 6 5 2 6 5 8 7 6 5 9 13 7 3 11 8 5 5 5 4 5 7 4 7 4 3 2 3 2 5 5 4 7 5 8 10 11 9
28 29 49 48 18 27 15 33 19 2 3 7 5 0 7 10 6 7 9 4 8 6 7 7 6 6 7 10 7 7 5 5 2 2 2 3 0 8 3 7 8 9 9 9 10
30 25 52 43 27 23 15 28 8 4 10 5 7 7 7 4 5 3 4 2 5 5 1 9 3 7 8 2 8 4 5 6 4 3 2 6 6 6 4 6 3 3 9 12 10
32 31 44 41 17 30 26 14 5 6 2 7 6 6 8 7 6 7 8 6 6 6 5 1 3 2 3 4 3 4 6 2 2 0 6 3 3 10 6 6 5 9 12 12 10
32 30 34 41 33 41 29 8 7 11 8 3 5 8 8 6 5 6 8 10 5 5 4 7 4 9 5 7 6 6 7 5 5 4 3 3 5 6 4 4 7 6 9 10 11
25 33 33 34 45 48 16 17 14 6 12 9 6 5 4 6 7 5 8 14 13 9 7 6 6 1 2 3 9 4 4 6 3 2 2 4 7 8 2 2 3 5 9 13 13
12 16 29 41 50 34 19 21 12 5 10 6 7 6 8 10 6 9 9 7 6 10 3 6 2 1 2 3 2 6 6 2 2 3 4 4 5 7 3 3 2 6 9 10 9
8 6 28 48 32 12 24 21 7 6 9 8 7 6 6 8 9 7 9 1 12 9 7 5 3 2 3 6 9 3 3 3 4 4 5 2 5 4 4 4 7 8 9 12 14
4 5 45 55 10 16 20 14 6 7 4 5 5 5 8 10 6 7 11 9 9 8 10 8 5 5 8 2 4 5 6 7 4 5 3 3 6 2 3 4 6 7 7 7 9
4 4 39 48 13 19 9 8 7 7 7 8 5 4 4 8 5 6 7 7 7 9 11 8 4 2 1 2 1 4 5 4 3 3 6 5 5 2 1 5 4 7 7 8 8
0 4 9 10 3 20 19 24 12 5 6 5 6 5 6 5 0 9 8 2 7 8 7 10 5 11 10 3 5 4 6 10 7 3 8 6 6 7 4 4 5 7 8 6 7
4 5 5 13 16 21 21 21 19 8 5 7 3 7 8 5 4 5 4 4 2 5 6 6 8 7 8 4 5 6 5 8 10 18 7 15 10 16 8 9 9 7 5 6 7
3 5 8 14 23 14 24 24 29 7 9 7 10 8 6 8 8 8 8 5 6 3 6 4 4 7 6 7 8 5 7 9 12 6 8 12 10 7 7 5 5 8 6 8 7
13 14 11 22 23 14 26 24 28 8 1 9 11 6 6 7 6 4 4 7 8 9 7 7 6 4 10 5 4 5 7 7 5 6 12 9 17 4 4 7 8 8 7 9 7
Wind_Direction
256 256 251 254 257 263 276 279 280 285 291 303 308 311 310 313 313 303 258 237 234 206 181 159 180 336 54 86 76 125 64 56 282 207 249 354 199 353 35 96 61 8 155 290 153
252 254 253 251 254 260 269 276 280 284 289 295 306 309 311 320 318 276 250 236 222 208 190 165 103 18 44 47 37 80 104 212 214 235 234 21 76 310 1 46 37 58 56 123 146
255 257 252 250 251 255 264 266 275 279 285 293 301 305 314 324 301 245 241 216 209 203 225 157 92 68 43 50 139 146 180 201 236 219 226 229 297 202 190 255 200 190 178 168 171
252 255 252 248 249 253 256 260 266 273 281 291 299 301 318 302 236 297 315 204 201 205 206 129 81 97 115 182 169 154 217 195 258 194 169 227 193 267 192 233 239 175 164 162 177
251 248 249 246 247 250 255 260 262 267 276 282 293 302 328 277 252 312 327 180 191 197 198 179 152 137 183 190 131 174 246 198 206 265 234 220 244 233 241 229 125 119 119 150 177
247 246 245 243 247 251 253 256 258 263 271 273 287 297 248 244 276 290 227 178 187 184 190 195 186 184 137 175 159 196 248 267 272 237 228 204 256 158 262 157 134 133 142 156 176
241 242 243 239 239 241 244 248 252 254 261 267 274 285 253 231 255 182 182 215 206 192 178 216 188 139 153 177 353 25 324 322 244 226 215 154 299 240 191 158 161 156 165 164 168
242 239 239 238 236 236 240 243 243 245 250 259 256 253 250 263 248 264 259 279 225 209 227 211 193 127 145 127 26 41 49 353 279 150 309 126 268 269 206 154 185 187 190 176 42
246 238 237 238 236 234 233 238 241 240 239 227 227 188 265 282 242 237 244 217 194 200 196 148 112 108 43 87 15 11 228 249 313 190 131 168 257 270 135 174 195 199 206 208 207
242 238 234 235 232 227 222 212 223 221 194 168 229 8 269 243 207 214 218 203 160 129 69 69 56 92 55 95 230 200 217 246 253 255 200 211 258 266 230 190 219 197 205 216 208
259 233 231 229 224 215 194 158 93 304 216 191 196 210 287 238 268 200 187 147 104 99 169 180 128 198 205 193 183 198 189 237 264 269 232 241 257 270 251 194 208 206 207 210 209
260 233 227 221 212 202 194 199 205 184 222 235 251 282 266 1 36 223 173 142 146 183 123 52 205 221 190 170 196 212 223 258 279 261 187 271 273 254 218 215 195 197 201 197 194
268 290 220 212 197 194 197 205 154 172 164 252 215 204 220 173 219 241 151 140 152 163 179 175 223 165 175 194 196 239 209 232 240 333 274 337 287 259 281 233 201 199 187 166 186
282 314 214 194 181 190 208 210 187 37 26 266 207 250 183 154 246 203 180 142 182 189 166 217 245 160 162 229 161 233 211 199 234 67 251 69 285 288 268 264 220 188 181 182 180
285 321 208 182 162 186 200 202 214 314 219 235 181 223 166 169 153 217 175 82 165 174 132 228 190 205 201 218 167 226 163 191 220 176 348 238 91 273 341 274 233 207 195 184 185
271 308 194 179 178 192 175 185 174 82 232 215 151 163 132 159 175 99 141 101 158 152 167 205 209 155 206 183 182 126 82 42 48 79 311 238 169 278 230 229 282 182 195 187 180
254 258 197 178 175 162 157 143 138 206 214 190 177 159 154 163 163 149 161 168 161 143 178 226 215 207 148 96 54 91 95 305 323 298 228 150 125 248 266 240 219 208 194 183 178
249 274 271 174 168 161 160 159 188 193 206 125 129 127 170 142 212 160 153 187 238 122 142 174 245 174 194 174 177 187 156 169 228 202 264 103 236 251 204 276 262 218 173 169 179
253 280 207 174 165 161 166 192 201 159 176 143 77 117 190 192 149 136 187 202 194 173 167 159 241 173 188 142 150 194 179 191 96 352 55 241 289 300 317 331 64 135 154 183 188
261 307 188 169 156 170 178 200 196 203 144 139 153 159 172 177 146 162 176 186 187 183 186 201 184 247 143 108 44 160 164 83 16 215 241 272 277 242 297 269 179 182 198 195 191
293 290 159 153 151 187 187 197 161 204 146 141 162 144 168 171 166 183 188 250 189 187 165 141 131 289 102 202 182 149 175 92 131 156 191 253 255 211 257 238 222 226 209 200 198
230 250 153 147 160 201 190 179 165 174 178 140 124 119 158 162 155 171 197 195 196 153 166 190 159 170 202 195 177 164 189 154 147 220 223 165 273 200 258 286 221 248 233 208 205
277 193 156 153 178 191 175 208 178 156 161 153 143 152 161 156 160 182 185 218 144 158 167 169 199 149 214 66 27 191 202 170 120 93 199 165 257 136 233 305 260 238 221 220 202
244 235 153 172 174 178 179 191 191 179 154 142 137 125 119 146 226 184 182 164 157 187 173 142 166 201 215 201 135 188 202 194 168 151 222 228 278 276 253 245 252 257 262 211 208
201 257 190 174 202 179 186 186 188 166 184 148 106 163 152 127 130 139 138 129 112 147 143 150 204 199 214 174 169 195 209 190 197 219 183 251 222 256 247 235 246 241 237 231 207
215 220 189 176 169 189 184 194 185 171 155 176 141 175 153 145 172 180 137 173 175 161 158 165 223 163 214 211 208 227 226 196 217 241 248 252 269 245 242 232 257 248 234 232 225
209 260 185 162 174 186 191 184 193 142 87 153 144 123 126 156 147 167 153 162 156 152 174 160 140 128 231 194 172 269 206 195 193 203 210 223 245 166 255 226 239 246 233 242 238